User: anonymous   Login
Location: Franzen
(48.6167°N, 15.3833°E)
Time: 23:03:15
(UTC+00:00)
Language:

OBJECT-B - Orbit

View from above orbital plane
View from above orbital plane
View from above satellite
View from above satellite

Ground track
Ground track

The orbit data is extracted from the following two-line orbital elements,

1 40382U 15004B   21156.10101409 0.00006400  00000-0  11661-3 0    09
2 40382  96.9648 197.5063 0006518 149.7400 210.2599 15.49458963    09
Epoch (UTC): 05 June 2021 02:25:27
Eccentricity: 0.0006518
inclination: 96.9648°
perigee height: 414 km
apogee height: 423 km
right ascension of ascending node: 197.5063°
argument of perigee: 149.7400°
revolutions per day: 15.49458963
mean anomaly at epoch: 210.2599°
orbit number at epoch: 0

The dashed part of the orbit path shows where the satellite is in the earth's shadow,  

DLR